Location: Brodeslavy
(49.9527°N, 13.5567°E)
Time: 05:44:08
(UTC+00:00)

Cosmos 2297 Rocket - Pass Details

Date: 17 June 2025
Orbit: 838 x 843 km, 71.0° (Epoch: 12 July)

Event Time Altitude Azimuth Distance (km) Brightness Sun altitude
Rises 20:21:52 0° 231° (SW) 3,390 5.3 -8.0°
Reaches altitude 10° 20:24:26 10° 239° (WSW) 2,459 4.7 -8.3°
Maximum altitude 20:29:46 41° 309° (NW) 1,200 3.7 -8.8°
Drops below altitude 10° 20:35:08 10° 20° (NNE) 2,473 5.1 -9.3°
Sets 20:37:44 0° 27° (NNE) 3,412 5.8 -9.5°
